Year,Month,Day,Hour,Minute,Value (Times are PST for temperature in C)
2015,05,03,00,00,6.90
2015,05,03,00,01,6.90
2015,05,03,00,02,6.90
2015,05,03,00,03,6.90
2015,05,03,00,04,6.90
2015,05,03,00,05,6.90
2015,05,03,00,06,6.80
2015,05,03,00,07,6.80
2015,05,03,00,08,6.80
2015,05,03,00,09,6.80
2015,05,03,00,10,6.70
2015,05,03,00,11,6.70
2015,05,03,00,12,6.70
2015,05,03,00,13,6.70
2015,05,03,00,14,6.70
2015,05,03,00,15,6.70
2015,05,03,00,16,6.70
2015,05,03,00,17,6.70
2015,05,03,00,18,6.60
2015,05,03,00,19,6.60
2015,05,03,00,20,6.60
2015,05,03,00,21,6.60
2015,05,03,00,22,6.60
2015,05,03,00,23,6.60
2015,05,03,00,24,6.60
2015,05,03,00,25,6.60
2015,05,03,00,26,6.60
2015,05,03,00,27,6.60
2015,05,03,00,28,6.60
2015,05,03,00,29,6.60
2015,05,03,00,30,6.60
2015,05,03,00,31,6.60
2015,05,03,00,32,6.60
2015,05,03,00,33,6.60
2015,05,03,00,34,6.60
2015,05,03,00,35,6.60
2015,05,03,00,36,6.50
2015,05,03,00,37,6.50
2015,05,03,00,38,6.50
2015,05,03,00,39,6.50
2015,05,03,00,40,6.50
2015,05,03,00,41,6.50
2015,05,03,00,42,6.50
2015,05,03,00,43,6.50
2015,05,03,00,44,6.50
2015,05,03,00,45,6.50
2015,05,03,00,46,6.50
2015,05,03,00,47,6.50
2015,05,03,00,48,6.50
2015,05,03,00,49,6.50
2015,05,03,00,50,6.50
2015,05,03,00,51,6.50
2015,05,03,00,52,6.50
2015,05,03,00,53,6.50
2015,05,03,00,54,6.40
2015,05,03,00,55,6.40
2015,05,03,00,56,6.40
2015,05,03,00,57,6.40
2015,05,03,00,58,6.40
2015,05,03,00,59,6.40
2015,05,03,01,00,6.40
2015,05,03,01,01,6.40
2015,05,03,01,02,6.40
2015,05,03,01,03,6.30
2015,05,03,01,04,6.30
2015,05,03,01,05,6.30
2015,05,03,01,06,6.30
2015,05,03,01,07,6.30
2015,05,03,01,08,6.30
2015,05,03,01,09,6.20
2015,05,03,01,10,6.20
2015,05,03,01,11,6.20
2015,05,03,01,12,6.20
2015,05,03,01,13,6.20
2015,05,03,01,14,6.30
2015,05,03,01,15,6.30
2015,05,03,01,16,6.30
2015,05,03,01,17,6.30
2015,05,03,01,18,6.30
2015,05,03,01,19,6.30
2015,05,03,01,20,6.20
2015,05,03,01,21,6.20
2015,05,03,01,22,6.20
2015,05,03,01,23,6.20
2015,05,03,01,24,6.20
2015,05,03,01,25,6.10
2015,05,03,01,26,6.10
2015,05,03,01,27,6.10
2015,05,03,01,28,6.10
2015,05,03,01,29,6.10
2015,05,03,01,30,6.10
2015,05,03,01,31,6.10
2015,05,03,01,32,6.10
2015,05,03,01,33,6.10
2015,05,03,01,34,6.10
2015,05,03,01,35,6.10
2015,05,03,01,36,6.00
2015,05,03,01,37,6.00
2015,05,03,01,38,6.00
2015,05,03,01,39,6.00
2015,05,03,01,40,6.00
2015,05,03,01,41,5.90
2015,05,03,01,42,5.90
2015,05,03,01,43,5.90
2015,05,03,01,44,5.90
2015,05,03,01,45,5.80
2015,05,03,01,46,5.80
2015,05,03,01,47,5.80
2015,05,03,01,48,5.70
2015,05,03,01,49,5.70
2015,05,03,01,50,5.70
2015,05,03,01,51,5.70
2015,05,03,01,52,5.70
2015,05,03,01,53,5.70
2015,05,03,01,54,5.70
2015,05,03,01,55,5.70
2015,05,03,01,56,5.70
2015,05,03,01,57,5.60
2015,05,03,01,58,5.60
2015,05,03,01,59,5.60
2015,05,03,02,00,5.60
2015,05,03,02,01,5.60
2015,05,03,02,02,5.50
2015,05,03,02,03,5.50
2015,05,03,02,04,5.50
2015,05,03,02,05,5.50
2015,05,03,02,06,5.50
2015,05,03,02,07,5.40
2015,05,03,02,08,5.40
2015,05,03,02,09,5.40
2015,05,03,02,10,5.30
2015,05,03,02,11,5.30
2015,05,03,02,12,5.30
2015,05,03,02,13,5.30
2015,05,03,02,14,5.20
2015,05,03,02,15,5.20
2015,05,03,02,16,5.20
2015,05,03,02,17,5.20
2015,05,03,02,18,5.10
2015,05,03,02,19,5.10
2015,05,03,02,20,5.10
2015,05,03,02,21,5.10
2015,05,03,02,22,5.00
2015,05,03,02,23,5.00
2015,05,03,02,24,4.90
2015,05,03,02,25,4.90
2015,05,03,02,26,4.90
2015,05,03,02,27,4.90
2015,05,03,02,28,4.80
2015,05,03,02,29,4.80
2015,05,03,02,30,4.80
2015,05,03,02,31,4.80
2015,05,03,02,32,4.80
2015,05,03,02,33,4.80
2015,05,03,02,34,4.70
2015,05,03,02,35,4.70
2015,05,03,02,36,4.70
2015,05,03,02,37,4.70
2015,05,03,02,38,4.70
2015,05,03,02,39,4.60
2015,05,03,02,40,4.60
2015,05,03,02,41,4.60
2015,05,03,02,42,4.60
2015,05,03,02,43,4.60
2015,05,03,02,44,4.60
2015,05,03,02,45,4.60
2015,05,03,02,46,4.60
2015,05,03,02,47,4.60
2015,05,03,02,48,4.60
2015,05,03,02,49,4.60
2015,05,03,02,50,4.60
2015,05,03,02,51,4.60
2015,05,03,02,52,4.60
2015,05,03,02,53,4.60
2015,05,03,02,54,4.70
2015,05,03,02,55,4.70
2015,05,03,02,56,4.70
2015,05,03,02,57,4.70
2015,05,03,02,58,4.70
2015,05,03,02,59,4.80
2015,05,03,03,00,4.80
2015,05,03,03,01,4.80
2015,05,03,03,02,4.80
2015,05,03,03,03,4.80
2015,05,03,03,04,4.90
2015,05,03,03,05,4.90
2015,05,03,03,06,4.90
2015,05,03,03,07,5.00
2015,05,03,03,08,5.00
2015,05,03,03,09,5.00
2015,05,03,03,10,5.00
2015,05,03,03,11,5.00
2015,05,03,03,12,5.00
2015,05,03,03,13,5.00
2015,05,03,03,14,5.00
2015,05,03,03,15,5.00
2015,05,03,03,16,5.00
2015,05,03,03,17,4.90
2015,05,03,03,18,4.90
2015,05,03,03,19,4.90
2015,05,03,03,20,4.80
2015,05,03,03,21,4.80
2015,05,03,03,22,4.80
2015,05,03,03,23,4.80
2015,05,03,03,24,4.70
2015,05,03,03,25,4.70
2015,05,03,03,26,4.70
2015,05,03,03,27,4.60
2015,05,03,03,28,4.60
2015,05,03,03,29,4.60
2015,05,03,03,30,4.60
2015,05,03,03,31,4.60
2015,05,03,03,32,4.60
2015,05,03,03,33,4.50
2015,05,03,03,34,4.50
2015,05,03,03,35,4.50
2015,05,03,03,36,4.50
2015,05,03,03,37,4.50
2015,05,03,03,38,4.50
2015,05,03,03,39,4.50
2015,05,03,03,40,4.50
2015,05,03,03,41,4.50
2015,05,03,03,42,4.50
2015,05,03,03,43,4.50
2015,05,03,03,44,4.50
2015,05,03,03,45,4.50
2015,05,03,03,46,4.50
2015,05,03,03,47,4.50
2015,05,03,03,48,4.60
2015,05,03,03,49,4.60
2015,05,03,03,50,4.60
2015,05,03,03,51,4.60
2015,05,03,03,52,4.60
2015,05,03,03,53,4.60
2015,05,03,03,54,4.60
2015,05,03,03,55,4.60
2015,05,03,03,56,4.50
2015,05,03,03,57,4.50
2015,05,03,03,58,4.50
2015,05,03,03,59,4.50
2015,05,03,04,00,4.40
2015,05,03,04,01,4.40
2015,05,03,04,02,4.40
2015,05,03,04,03,4.40
2015,05,03,04,04,4.40
2015,05,03,04,05,4.40
2015,05,03,04,06,4.40
2015,05,03,04,07,4.40
2015,05,03,04,08,4.40
2015,05,03,04,09,4.40
2015,05,03,04,10,4.40
2015,05,03,04,11,4.40
2015,05,03,04,12,4.40
2015,05,03,04,13,4.50
2015,05,03,04,14,4.50
2015,05,03,04,15,4.50
2015,05,03,04,16,4.40
2015,05,03,04,17,4.40
2015,05,03,04,18,4.40
2015,05,03,04,19,4.40
2015,05,03,04,20,4.40
2015,05,03,04,21,4.40
2015,05,03,04,22,4.30
2015,05,03,04,23,4.30
2015,05,03,04,24,4.30
2015,05,03,04,25,4.30
2015,05,03,04,26,4.30
2015,05,03,04,27,4.30
2015,05,03,04,28,4.30
2015,05,03,04,29,4.30
2015,05,03,04,30,4.30
2015,05,03,04,31,4.30
2015,05,03,04,32,4.30
2015,05,03,04,33,4.40
2015,05,03,04,34,4.40
2015,05,03,04,35,4.40
2015,05,03,04,36,4.40
2015,05,03,04,37,4.40
2015,05,03,04,38,4.40
2015,05,03,04,39,4.40
2015,05,03,04,40,4.40
2015,05,03,04,41,4.40
2015,05,03,04,42,4.40
2015,05,03,04,43,4.30
2015,05,03,04,44,4.30
2015,05,03,04,45,4.30
2015,05,03,04,46,4.30
2015,05,03,04,47,4.30
2015,05,03,04,48,4.30
2015,05,03,04,49,4.30
2015,05,03,04,50,4.20
2015,05,03,04,51,4.20
2015,05,03,04,52,4.20
2015,05,03,04,53,4.20
2015,05,03,04,54,4.20
2015,05,03,04,55,4.20
2015,05,03,04,56,4.30
2015,05,03,04,57,4.30
2015,05,03,04,58,4.30
2015,05,03,04,59,4.30
2015,05,03,05,00,4.30
2015,05,03,05,01,4.40
2015,05,03,05,02,4.40
2015,05,03,05,03,4.40
2015,05,03,05,04,4.50
2015,05,03,05,05,4.50
2015,05,03,05,06,4.50
2015,05,03,05,07,4.50
2015,05,03,05,08,4.60
2015,05,03,05,09,4.60
2015,05,03,05,10,4.60
2015,05,03,05,11,4.60
2015,05,03,05,12,4.60
2015,05,03,05,13,4.60
2015,05,03,05,14,4.60
2015,05,03,05,15,4.60
2015,05,03,05,16,4.60
2015,05,03,05,17,4.60
2015,05,03,05,18,4.50
2015,05,03,05,19,4.50
2015,05,03,05,20,4.50
2015,05,03,05,21,4.50
2015,05,03,05,22,4.50
2015,05,03,05,23,4.40
2015,05,03,05,24,4.40
2015,05,03,05,25,4.40
2015,05,03,05,26,4.40
2015,05,03,05,27,4.40
2015,05,03,05,28,4.40
2015,05,03,05,29,4.40
2015,05,03,05,30,4.40
2015,05,03,05,31,4.40
2015,05,03,05,32,4.40
2015,05,03,05,33,4.40
2015,05,03,05,34,4.40
2015,05,03,05,35,4.40
2015,05,03,05,36,4.40
2015,05,03,05,37,4.30
2015,05,03,05,38,4.30
2015,05,03,05,39,4.30
2015,05,03,05,40,4.20
2015,05,03,05,41,4.20
2015,05,03,05,42,4.20
2015,05,03,05,43,4.20
2015,05,03,05,44,4.10
2015,05,03,05,45,4.10
2015,05,03,05,46,4.10
2015,05,03,05,47,4.10
2015,05,03,05,48,4.00
2015,05,03,05,49,4.00
2015,05,03,05,50,3.90
2015,05,03,05,51,3.90
2015,05,03,05,52,3.90
2015,05,03,05,53,3.90
2015,05,03,05,54,3.80
2015,05,03,05,55,3.80
2015,05,03,05,56,3.80
2015,05,03,05,57,3.80
2015,05,03,05,58,3.70
2015,05,03,05,59,3.70
2015,05,03,06,00,3.70
2015,05,03,06,01,3.70
2015,05,03,06,02,3.60
2015,05,03,06,03,3.60
2015,05,03,06,04,3.60
2015,05,03,06,05,3.60
2015,05,03,06,06,3.50
2015,05,03,06,07,3.50
2015,05,03,06,08,3.50
2015,05,03,06,09,3.40
2015,05,03,06,10,3.40
2015,05,03,06,11,3.40
2015,05,03,06,12,3.40
2015,05,03,06,13,3.40
2015,05,03,06,14,3.40
2015,05,03,06,15,3.40
2015,05,03,06,16,3.40
2015,05,03,06,17,3.40
2015,05,03,06,18,3.40
2015,05,03,06,19,3.40
2015,05,03,06,20,3.40
2015,05,03,06,21,3.40
2015,05,03,06,22,3.40
2015,05,03,06,23,3.40
2015,05,03,06,24,3.40
2015,05,03,06,25,3.50
2015,05,03,06,26,3.50
2015,05,03,06,27,3.50
2015,05,03,06,28,3.50
2015,05,03,06,29,3.50
2015,05,03,06,30,3.50
2015,05,03,06,31,3.60
2015,05,03,06,32,3.60
2015,05,03,06,33,3.60
2015,05,03,06,34,3.60
2015,05,03,06,35,3.60
2015,05,03,06,36,3.60
2015,05,03,06,37,3.60
2015,05,03,06,38,3.60
2015,05,03,06,39,3.70
2015,05,03,06,40,3.70
2015,05,03,06,41,3.70
2015,05,03,06,42,3.70
2015,05,03,06,43,3.70
2015,05,03,06,44,3.70
2015,05,03,06,45,3.70
2015,05,03,06,46,3.70
2015,05,03,06,47,3.70
2015,05,03,06,48,3.70
2015,05,03,06,49,3.70
2015,05,03,06,50,3.70
2015,05,03,06,51,3.70
2015,05,03,06,52,3.70
2015,05,03,06,53,3.80
2015,05,03,06,54,3.80
2015,05,03,06,55,3.80
2015,05,03,06,56,3.80
2015,05,03,06,57,3.80
2015,05,03,06,58,3.80
2015,05,03,06,59,3.80
2015,05,03,07,00,3.80
2015,05,03,07,01,3.80
2015,05,03,07,02,3.80
2015,05,03,07,03,3.90
2015,05,03,07,04,3.90
2015,05,03,07,05,3.90
2015,05,03,07,06,4.00
2015,05,03,07,07,4.00
2015,05,03,07,08,4.00
2015,05,03,07,09,4.10
2015,05,03,07,10,4.10
2015,05,03,07,11,4.20
2015,05,03,07,12,4.20
2015,05,03,07,13,4.30
2015,05,03,07,14,4.40
2015,05,03,07,15,4.50
2015,05,03,07,16,4.50
2015,05,03,07,17,4.60
2015,05,03,07,18,4.70
2015,05,03,07,19,4.80
2015,05,03,07,20,4.90
2015,05,03,07,21,5.00
2015,05,03,07,22,5.10
2015,05,03,07,23,5.20
2015,05,03,07,24,5.30
2015,05,03,07,25,5.40
2015,05,03,07,26,5.40
2015,05,03,07,27,5.50
2015,05,03,07,28,5.60
2015,05,03,07,29,5.70
2015,05,03,07,30,5.80
2015,05,03,07,31,5.90
2015,05,03,07,32,6.00
2015,05,03,07,33,6.20
2015,05,03,07,34,6.30
2015,05,03,07,35,6.40
2015,05,03,07,36,6.50
2015,05,03,07,37,6.60
2015,05,03,07,38,6.80
2015,05,03,07,39,6.80
2015,05,03,07,40,6.90
2015,05,03,07,41,7.00
2015,05,03,07,42,7.00
2015,05,03,07,43,7.00
2015,05,03,07,44,7.10
2015,05,03,07,45,7.10
2015,05,03,07,46,7.10
2015,05,03,07,47,7.20
2015,05,03,07,48,7.30
2015,05,03,07,49,7.30
2015,05,03,07,50,7.40
2015,05,03,07,51,7.50
2015,05,03,07,52,7.50
2015,05,03,07,53,7.60
2015,05,03,07,54,7.70
2015,05,03,07,55,7.70
2015,05,03,07,56,7.80
2015,05,03,07,57,7.90
2015,05,03,07,58,8.00
2015,05,03,07,59,8.10
2015,05,03,08,00,8.20
2015,05,03,08,01,8.30
2015,05,03,08,02,8.40
2015,05,03,08,03,8.50
2015,05,03,08,04,8.60
2015,05,03,08,05,8.70
2015,05,03,08,06,8.80
2015,05,03,08,07,8.90
2015,05,03,08,08,9.00
2015,05,03,08,09,9.10
2015,05,03,08,10,9.10
2015,05,03,08,11,9.30
2015,05,03,08,12,9.40
2015,05,03,08,13,9.50
2015,05,03,08,14,9.60
2015,05,03,08,15,9.70
2015,05,03,08,16,9.80
2015,05,03,08,17,9.90
2015,05,03,08,18,10.00
2015,05,03,08,19,10.00
2015,05,03,08,20,10.10
2015,05,03,08,21,10.10
2015,05,03,08,22,10.20
2015,05,03,08,23,10.20
2015,05,03,08,24,10.20
2015,05,03,08,25,10.30
2015,05,03,08,26,10.30
2015,05,03,08,27,10.30
2015,05,03,08,28,10.40
2015,05,03,08,29,10.40
2015,05,03,08,30,10.50
2015,05,03,08,31,10.50
2015,05,03,08,32,10.60
2015,05,03,08,33,10.60
2015,05,03,08,34,10.60
2015,05,03,08,35,10.70
2015,05,03,08,36,10.70
2015,05,03,08,37,10.70
2015,05,03,08,38,10.70
2015,05,03,08,39,10.80
2015,05,03,08,40,10.80
2015,05,03,08,41,10.90
2015,05,03,08,42,10.90
2015,05,03,08,43,10.90
2015,05,03,08,44,10.90
2015,05,03,08,45,10.90
2015,05,03,08,46,10.90
2015,05,03,08,47,10.90
2015,05,03,08,48,11.00
2015,05,03,08,49,11.00
2015,05,03,08,50,11.00
2015,05,03,08,51,11.10
2015,05,03,08,52,11.10
2015,05,03,08,53,11.10
2015,05,03,08,54,11.10
2015,05,03,08,55,11.10
2015,05,03,08,56,11.10
2015,05,03,08,57,11.10
2015,05,03,08,58,11.10
2015,05,03,08,59,11.10
2015,05,03,09,00,11.10
2015,05,03,09,01,11.10
2015,05,03,09,02,11.10
2015,05,03,09,03,11.20
2015,05,03,09,04,11.20
2015,05,03,09,05,11.20
2015,05,03,09,06,11.20
2015,05,03,09,07,11.10
2015,05,03,09,08,11.20
2015,05,03,09,09,11.20
2015,05,03,09,10,11.20
2015,05,03,09,11,11.20
2015,05,03,09,12,11.20
2015,05,03,09,13,11.20
2015,05,03,09,14,11.30
2015,05,03,09,15,11.30
2015,05,03,09,16,11.30
2015,05,03,09,17,11.30
2015,05,03,09,18,11.30
2015,05,03,09,19,11.40
2015,05,03,09,20,11.40
2015,05,03,09,21,11.50
2015,05,03,09,22,11.50
2015,05,03,09,23,11.60
2015,05,03,09,24,11.70
2015,05,03,09,25,11.70
2015,05,03,09,26,11.70
2015,05,03,09,27,11.80
2015,05,03,09,28,11.80
2015,05,03,09,29,11.90
2015,05,03,09,30,11.90
2015,05,03,09,31,12.00
2015,05,03,09,32,12.00
2015,05,03,09,33,12.00
2015,05,03,09,34,11.90
2015,05,03,09,35,12.00
2015,05,03,09,36,12.00
2015,05,03,09,37,12.00
2015,05,03,09,38,12.10
2015,05,03,09,39,12.20
2015,05,03,09,40,12.30
2015,05,03,09,41,12.30
2015,05,03,09,42,12.40
2015,05,03,09,43,12.40
2015,05,03,09,44,12.40
2015,05,03,09,45,12.50
2015,05,03,09,46,12.50
2015,05,03,09,47,12.50
2015,05,03,09,48,12.40
2015,05,03,09,49,12.40
2015,05,03,09,50,12.40
2015,05,03,09,51,12.40
2015,05,03,09,52,12.40
2015,05,03,09,53,12.40
2015,05,03,09,54,12.40
2015,05,03,09,55,12.40
2015,05,03,09,56,12.40
2015,05,03,09,57,12.40
2015,05,03,09,58,12.40
2015,05,03,09,59,12.50
2015,05,03,10,00,12.60
2015,05,03,10,01,12.70
2015,05,03,10,02,12.70
2015,05,03,10,03,12.80
2015,05,03,10,04,12.70
2015,05,03,10,05,12.60
2015,05,03,10,06,12.50
2015,05,03,10,07,12.40
2015,05,03,10,08,12.40
2015,05,03,10,09,12.40
2015,05,03,10,10,12.40
2015,05,03,10,11,12.30
2015,05,03,10,12,12.40
2015,05,03,10,13,12.40
2015,05,03,10,14,12.40
2015,05,03,10,15,12.40
2015,05,03,10,16,12.50
2015,05,03,10,17,12.50
2015,05,03,10,18,12.60
2015,05,03,10,19,12.60
2015,05,03,10,20,12.60
2015,05,03,10,21,12.60
2015,05,03,10,22,12.60
2015,05,03,10,23,12.60
2015,05,03,10,24,12.50
2015,05,03,10,25,12.50
2015,05,03,10,26,12.50
2015,05,03,10,27,12.50
2015,05,03,10,28,12.50
2015,05,03,10,29,12.50
2015,05,03,10,30,12.50
2015,05,03,10,31,12.50
2015,05,03,10,32,12.50
2015,05,03,10,33,12.50
2015,05,03,10,34,12.50
2015,05,03,10,35,12.60
2015,05,03,10,36,12.60
2015,05,03,10,37,12.60
2015,05,03,10,38,12.60
2015,05,03,10,39,12.50
2015,05,03,10,40,12.40
2015,05,03,10,41,12.50
2015,05,03,10,42,12.50
2015,05,03,10,43,12.40
2015,05,03,10,44,12.40
2015,05,03,10,45,12.30
2015,05,03,10,46,12.30
2015,05,03,10,47,12.40
2015,05,03,10,48,12.50
2015,05,03,10,49,12.60
2015,05,03,10,50,12.50
2015,05,03,10,51,12.50
2015,05,03,10,52,12.40
2015,05,03,10,53,12.50
2015,05,03,10,54,12.60
2015,05,03,10,55,12.60
2015,05,03,10,56,12.60
2015,05,03,10,57,12.50
2015,05,03,10,58,12.40
2015,05,03,10,59,12.30
2015,05,03,11,00,12.30
2015,05,03,11,01,12.20
2015,05,03,11,02,12.10
2015,05,03,11,03,12.10
2015,05,03,11,04,12.10
2015,05,03,11,05,12.10
2015,05,03,11,06,12.20
2015,05,03,11,07,12.30
2015,05,03,11,08,12.30
2015,05,03,11,09,12.40
2015,05,03,11,10,12.50
2015,05,03,11,11,12.50
2015,05,03,11,12,12.50
2015,05,03,11,13,12.50
2015,05,03,11,14,12.60
2015,05,03,11,15,12.60
2015,05,03,11,16,12.60
2015,05,03,11,17,12.60
2015,05,03,11,18,12.60
2015,05,03,11,19,12.60
2015,05,03,11,20,12.60
2015,05,03,11,21,12.60
2015,05,03,11,22,12.50
2015,05,03,11,23,12.50
2015,05,03,11,24,12.40
2015,05,03,11,25,12.40
2015,05,03,11,26,12.40
2015,05,03,11,27,12.40
2015,05,03,11,28,12.40
2015,05,03,11,29,12.40
2015,05,03,11,30,12.40
2015,05,03,11,31,12.30
2015,05,03,11,32,12.30
2015,05,03,11,33,12.30
2015,05,03,11,34,12.40
2015,05,03,11,35,12.40
2015,05,03,11,36,12.40
2015,05,03,11,37,12.50
2015,05,03,11,38,12.50
2015,05,03,11,39,12.60
2015,05,03,11,40,12.70
2015,05,03,11,41,12.70
2015,05,03,11,42,12.70
2015,05,03,11,43,12.80
2015,05,03,11,44,12.90
2015,05,03,11,45,13.00
2015,05,03,11,46,13.10
2015,05,03,11,47,13.10
2015,05,03,11,48,13.10
2015,05,03,11,49,13.00
2015,05,03,11,50,13.00
2015,05,03,11,51,13.00
2015,05,03,11,52,13.00
2015,05,03,11,53,12.90
2015,05,03,11,54,12.90
2015,05,03,11,55,12.90
2015,05,03,11,56,13.00
2015,05,03,11,57,13.00
2015,05,03,11,58,13.10
2015,05,03,11,59,13.20
2015,05,03,12,00,13.20
2015,05,03,12,01,13.30
2015,05,03,12,02,13.40
2015,05,03,12,03,13.40
2015,05,03,12,04,13.50
2015,05,03,12,05,13.50
2015,05,03,12,06,13.60
2015,05,03,12,07,13.60
2015,05,03,12,08,13.70
2015,05,03,12,09,13.70
2015,05,03,12,10,13.70
2015,05,03,12,11,13.80
2015,05,03,12,12,13.80
2015,05,03,12,13,13.80
2015,05,03,12,14,13.80
2015,05,03,12,15,13.70
2015,05,03,12,16,13.60
2015,05,03,12,17,13.50
2015,05,03,12,18,13.50
2015,05,03,12,19,13.50
2015,05,03,12,20,13.60
2015,05,03,12,21,13.60
2015,05,03,12,22,13.60
2015,05,03,12,23,13.60
2015,05,03,12,24,13.70
2015,05,03,12,25,13.70
2015,05,03,12,26,13.80
2015,05,03,12,27,13.90
2015,05,03,12,28,13.90
2015,05,03,12,29,13.90
2015,05,03,12,30,13.90
2015,05,03,12,31,13.90
2015,05,03,12,32,13.90
2015,05,03,12,33,14.00
2015,05,03,12,34,14.10
2015,05,03,12,35,14.10
2015,05,03,12,36,14.20
2015,05,03,12,37,14.30
2015,05,03,12,38,14.30
2015,05,03,12,39,14.30
2015,05,03,12,40,14.40
2015,05,03,12,41,14.40
2015,05,03,12,42,14.30
2015,05,03,12,43,14.30
2015,05,03,12,44,14.20
2015,05,03,12,45,14.20
2015,05,03,12,46,14.20
2015,05,03,12,47,14.20
2015,05,03,12,48,14.20
2015,05,03,12,49,14.20
2015,05,03,12,50,14.20
2015,05,03,12,51,14.20
2015,05,03,12,52,14.30
2015,05,03,12,53,14.40
2015,05,03,12,54,14.40
2015,05,03,12,55,14.50
2015,05,03,12,56,14.60
2015,05,03,12,57,14.60
2015,05,03,12,58,14.70
2015,05,03,12,59,14.70
2015,05,03,13,00,14.80
2015,05,03,13,01,14.90
2015,05,03,13,02,14.90
2015,05,03,13,03,14.90
2015,05,03,13,04,15.00
2015,05,03,13,05,15.00
2015,05,03,13,06,15.10
2015,05,03,13,07,15.10
2015,05,03,13,08,15.10
2015,05,03,13,09,15.20
2015,05,03,13,10,15.20
2015,05,03,13,11,15.20
2015,05,03,13,12,15.20
2015,05,03,13,13,15.20
2015,05,03,13,14,15.20
2015,05,03,13,15,15.20
2015,05,03,13,16,15.20
2015,05,03,13,17,15.20
2015,05,03,13,18,15.20
2015,05,03,13,19,15.20
2015,05,03,13,20,15.30
2015,05,03,13,21,15.30
2015,05,03,13,22,15.40
2015,05,03,13,23,15.50
2015,05,03,13,24,15.60
2015,05,03,13,25,15.60
2015,05,03,13,26,15.50
2015,05,03,13,27,15.50
2015,05,03,13,28,15.40
2015,05,03,13,29,15.30
2015,05,03,13,30,15.20
2015,05,03,13,31,15.20
2015,05,03,13,32,15.20
2015,05,03,13,33,15.10
2015,05,03,13,34,15.10
2015,05,03,13,35,15.10
2015,05,03,13,36,15.10
2015,05,03,13,37,15.00
2015,05,03,13,38,15.10
2015,05,03,13,39,15.10
2015,05,03,13,40,15.10
2015,05,03,13,41,15.10
2015,05,03,13,42,15.10
2015,05,03,13,43,15.00
2015,05,03,13,44,14.90
2015,05,03,13,45,14.90
2015,05,03,13,46,15.00
2015,05,03,13,47,15.00
2015,05,03,13,48,15.10
2015,05,03,13,49,15.10
2015,05,03,13,50,15.10
2015,05,03,13,51,15.10
2015,05,03,13,52,15.10
2015,05,03,13,53,15.10
2015,05,03,13,54,15.20
2015,05,03,13,55,15.20
2015,05,03,13,56,15.10
2015,05,03,13,57,15.00
2015,05,03,13,58,14.80
2015,05,03,13,59,14.70
2015,05,03,14,00,14.70
2015,05,03,14,01,14.70
2015,05,03,14,02,14.80
2015,05,03,14,03,14.90
2015,05,03,14,04,14.90
2015,05,03,14,05,14.90
2015,05,03,14,06,14.90
2015,05,03,14,07,14.90
2015,05,03,14,08,14.90
2015,05,03,14,09,14.90
2015,05,03,14,10,14.80
2015,05,03,14,11,14.70
2015,05,03,14,12,14.60
2015,05,03,14,13,14.50
2015,05,03,14,14,14.40
2015,05,03,14,15,14.50
2015,05,03,14,16,14.50
2015,05,03,14,17,14.60
2015,05,03,14,18,14.60
2015,05,03,14,19,14.50
2015,05,03,14,20,14.50
2015,05,03,14,21,14.60
2015,05,03,14,22,14.60
2015,05,03,14,23,14.60
2015,05,03,14,24,14.60
2015,05,03,14,25,14.70
2015,05,03,14,26,14.70
2015,05,03,14,27,14.70
2015,05,03,14,28,14.80
2015,05,03,14,29,14.80
2015,05,03,14,30,14.80
2015,05,03,14,31,14.90
2015,05,03,14,32,15.00
2015,05,03,14,33,15.10
2015,05,03,14,34,15.20
2015,05,03,14,35,15.20
2015,05,03,14,36,15.30
2015,05,03,14,37,15.30
2015,05,03,14,38,15.30
2015,05,03,14,39,15.20
2015,05,03,14,40,15.20
2015,05,03,14,41,15.10
2015,05,03,14,42,15.20
2015,05,03,14,43,15.20
2015,05,03,14,44,15.30
2015,05,03,14,45,15.40
2015,05,03,14,46,15.40
2015,05,03,14,47,15.50
2015,05,03,14,48,15.50
2015,05,03,14,49,15.60
2015,05,03,14,50,15.50
2015,05,03,14,51,15.50
2015,05,03,14,52,15.40
2015,05,03,14,53,15.40
2015,05,03,14,54,15.40
2015,05,03,14,55,15.40
2015,05,03,14,56,15.50
2015,05,03,14,57,15.50
2015,05,03,14,58,15.60
2015,05,03,14,59,15.70
2015,05,03,15,00,15.80
2015,05,03,15,01,15.80
2015,05,03,15,02,15.80
2015,05,03,15,03,15.90
2015,05,03,15,04,15.90
2015,05,03,15,05,15.90
2015,05,03,15,06,16.00
2015,05,03,15,07,16.10
2015,05,03,15,08,16.30
2015,05,03,15,09,16.30
2015,05,03,15,10,16.30
2015,05,03,15,11,16.30
2015,05,03,15,12,16.30
2015,05,03,15,13,16.30
2015,05,03,15,14,16.20
2015,05,03,15,15,16.20
2015,05,03,15,16,16.20
2015,05,03,15,17,16.10
2015,05,03,15,18,16.10
2015,05,03,15,19,16.10
2015,05,03,15,20,16.10
2015,05,03,15,21,16.10
2015,05,03,15,22,16.10
2015,05,03,15,23,16.10
2015,05,03,15,24,16.10
2015,05,03,15,25,16.10
2015,05,03,15,26,16.10
2015,05,03,15,27,16.10
2015,05,03,15,28,16.10
2015,05,03,15,29,16.10
2015,05,03,15,30,16.00
2015,05,03,15,31,16.00
2015,05,03,15,32,16.10
2015,05,03,15,33,16.10
2015,05,03,15,34,16.20
2015,05,03,15,35,16.30
2015,05,03,15,36,16.30
2015,05,03,15,37,16.30
2015,05,03,15,38,16.30
2015,05,03,15,39,16.30
2015,05,03,15,40,16.30
2015,05,03,15,41,16.40
2015,05,03,15,42,16.50
2015,05,03,15,43,16.60
2015,05,03,15,44,16.60
2015,05,03,15,45,16.70
2015,05,03,15,46,16.80
2015,05,03,15,47,16.80
2015,05,03,15,48,16.80
2015,05,03,15,49,16.80
2015,05,03,15,50,16.80
2015,05,03,15,51,16.70
2015,05,03,15,52,16.70
2015,05,03,15,53,16.60
2015,05,03,15,54,16.60
2015,05,03,15,55,16.60
2015,05,03,15,56,16.60
2015,05,03,15,57,16.70
2015,05,03,15,58,16.70
2015,05,03,15,59,16.70
2015,05,03,16,00,16.70
2015,05,03,16,01,16.80
2015,05,03,16,02,16.80
2015,05,03,16,03,16.70
2015,05,03,16,04,16.70
2015,05,03,16,05,16.70
2015,05,03,16,06,16.70
2015,05,03,16,07,16.60
2015,05,03,16,08,16.60
2015,05,03,16,09,16.60
2015,05,03,16,10,16.50
2015,05,03,16,11,16.50
2015,05,03,16,12,16.40
2015,05,03,16,13,16.40
2015,05,03,16,14,16.40
2015,05,03,16,15,16.50
2015,05,03,16,16,16.50
2015,05,03,16,17,16.50
2015,05,03,16,18,16.60
2015,05,03,16,19,16.60
2015,05,03,16,20,16.60
2015,05,03,16,21,16.70
2015,05,03,16,22,16.70
2015,05,03,16,23,16.80
2015,05,03,16,24,16.80
2015,05,03,16,25,16.70
2015,05,03,16,26,16.70
2015,05,03,16,27,16.70
2015,05,03,16,28,16.70
2015,05,03,16,29,16.70
2015,05,03,16,30,16.70
2015,05,03,16,31,16.60
2015,05,03,16,32,16.60
2015,05,03,16,33,16.60
2015,05,03,16,34,16.60
2015,05,03,16,35,16.60
2015,05,03,16,36,16.50
2015,05,03,16,37,16.50
2015,05,03,16,38,16.50
2015,05,03,16,39,16.40
2015,05,03,16,40,16.40
2015,05,03,16,41,16.40
2015,05,03,16,42,16.30
2015,05,03,16,43,16.30
2015,05,03,16,44,16.30
2015,05,03,16,45,16.40
2015,05,03,16,46,16.50
2015,05,03,16,47,16.60
2015,05,03,16,48,16.60
2015,05,03,16,49,16.70
2015,05,03,16,50,16.80
2015,05,03,16,51,16.80
2015,05,03,16,52,16.80
2015,05,03,16,53,16.90
2015,05,03,16,54,17.00
2015,05,03,16,55,17.00
2015,05,03,16,56,17.10
2015,05,03,16,57,17.10
2015,05,03,16,58,17.20
2015,05,03,16,59,17.20
2015,05,03,17,00,17.20
2015,05,03,17,01,17.20
2015,05,03,17,02,17.20
2015,05,03,17,03,17.20
2015,05,03,17,04,17.20
2015,05,03,17,05,17.20
2015,05,03,17,06,17.20
2015,05,03,17,07,17.20
2015,05,03,17,08,17.20
2015,05,03,17,09,17.30
2015,05,03,17,10,17.30
2015,05,03,17,11,17.40
2015,05,03,17,12,17.40
2015,05,03,17,13,17.40
2015,05,03,17,14,17.30
2015,05,03,17,15,17.30
2015,05,03,17,16,17.20
2015,05,03,17,17,17.20
2015,05,03,17,18,17.10
2015,05,03,17,19,17.10
2015,05,03,17,20,17.00
2015,05,03,17,21,16.90
2015,05,03,17,22,16.90
2015,05,03,17,23,16.80
2015,05,03,17,24,16.80
2015,05,03,17,25,16.80
2015,05,03,17,26,16.80
2015,05,03,17,27,16.80
2015,05,03,17,28,16.90
2015,05,03,17,29,16.90
2015,05,03,17,30,16.90
2015,05,03,17,31,16.90
2015,05,03,17,32,16.90
2015,05,03,17,33,17.00
2015,05,03,17,34,17.00
2015,05,03,17,35,17.00
2015,05,03,17,36,17.00
2015,05,03,17,37,17.00
2015,05,03,17,38,17.00
2015,05,03,17,39,16.90
2015,05,03,17,40,16.90
2015,05,03,17,41,16.90